Date String (YYYY-MM-DD hh:mm:ss) UTC,Instrument flags,Ambient pressure (hPa),Sample flow (lpm),Bypass flow (lpm),Sample temperature (°C),Ambient temperature (°C),ASC tube jacket temperature (°C),LED temperature (°C),Box temperature (°C),Sample RH (%),Span deviation,Mass concentration (μg/m³),Mass concentration (μg/m³),Mass concentration (μg/m³)
DateTimeUTC,F1_M11,P_M11,Q1_M11,Q2_M11,T1_M11,T2_M11,T3_M11,T4_M11,T5_M11,U1_M11,ZSPAN_M11,X0_M11,X2_M11,X1_M11
2023-02-20 15:00:00,,0816.0,5.00,0.00,21.9,20.3,00.0,30.9,23.6,10.5,0000.0,0006.96,0001.68,0000.94
2023-02-20 15:01:00,,0816.0,4.99,0.00,21.9,20.3,00.0,30.9,23.5,10.5,0000.0,0006.17,0001.60,0000.93
2023-02-20 15:02:00,,0815.6,5.01,0.00,21.9,20.2,00.0,30.9,23.5,10.5,0000.0,0005.23,0001.58,0000.92
2023-02-20 15:03:00,,0816.0,4.99,0.00,21.9,20.1,00.0,30.9,23.4,10.6,0000.0,0005.94,0001.56,0000.90
2023-02-20 15:04:00,,0815.9,5.01,0.00,21.8,20.1,00.0,30.9,23.4,10.8,0000.0,0006.06,0001.60,0000.90
2023-02-20 15:05:00,,0816.0,5.00,0.00,21.8,20.1,00.0,30.9,23.4,11.0,0000.0,0005.93,0001.59,0000.88
2023-02-20 15:06:00,,0816.3,5.00,0.00,21.8,20.1,00.0,30.8,23.4,11.1,0000.0,0005.65,0001.62,0000.86
2023-02-20 15:07:00,,0816.0,5.01,0.00,21.8,20.1,00.0,30.8,23.4,10.8,0000.0,0005.81,0001.62,0000.87
2023-02-20 15:08:00,,0815.9,5.01,0.00,21.8,20.1,00.0,30.8,23.4,10.7,0000.0,0005.82,0001.64,0000.87
2023-02-20 15:09:00,,0815.9,4.99,0.00,21.8,20.1,00.0,30.8,23.5,10.8,0000.0,0005.05,0001.64,0000.88
2023-02-20 15:10:00,,0815.8,5.01,0.00,21.8,20.1,00.0,30.8,23.4,10.8,0000.0,0004.88,0001.64,0000.88
2023-02-20 15:11:00,,0816.0,5.01,0.00,21.8,20.0,00.0,30.8,23.3,10.8,0000.0,0005.10,0001.70,0000.88
2023-02-20 15:12:00,,0815.9,5.02,0.00,21.7,20.0,00.0,30.8,23.3,10.8,0000.0,0005.41,0001.76,0000.88
2023-02-20 15:13:00,,0815.3,5.01,0.00,21.7,20.0,00.0,30.7,23.3,10.7,0000.0,0005.66,0001.79,0000.88
2023-02-20 15:14:00,,0815.7,5.02,0.00,21.8,21.3,00.0,30.7,23.6,10.7,0000.0,0006.33,0001.78,0000.88
2023-02-20 15:15:00,,0815.2,4.99,0.00,21.9,22.6,00.0,30.7,24.0,10.8,0000.0,0006.24,0001.69,0000.87
2023-02-20 15:16:00,,0815.9,4.96,0.00,22.0,22.4,00.0,30.7,24.0,10.6,0000.0,0006.63,0001.68,0000.87
2023-02-20 15:17:00,,0816.1,4.99,0.00,22.0,21.9,00.0,30.8,23.9,10.7,0000.0,0006.43,0001.64,0000.87
2023-02-20 15:18:00,,0815.9,5.01,0.00,22.0,21.5,00.0,30.8,23.8,10.5,0000.0,0006.24,0001.59,0000.86
2023-02-20 15:19:00,,0815.6,4.99,0.00,22.0,21.1,00.0,30.8,23.6,10.6,0000.0,0005.93,0001.56,0000.86
2023-02-20 15:20:00,,0815.8,5.02,0.00,21.9,20.8,00.0,30.8,23.5,10.6,0000.0,0005.92,0001.53,0000.85
2023-02-20 15:21:00,,0815.3,5.00,0.00,21.9,20.5,00.0,30.8,23.4,10.7,0000.0,0005.91,0001.53,0000.86
2023-02-20 15:22:00,,0815.6,5.01,0.00,21.8,20.3,00.0,30.8,23.4,10.7,0000.0,0005.78,0001.48,0000.86
2023-02-20 15:23:00,,0815.8,5.00,0.00,21.8,20.2,00.0,30.8,23.4,10.7,0000.0,0005.69,0001.48,0000.85
2023-02-20 15:24:00,,0815.7,5.00,0.00,21.8,20.1,00.0,30.8,23.3,10.8,0000.0,0006.32,0001.50,0000.86
2023-02-20 15:25:00,,0815.1,4.98,0.00,21.7,19.9,00.0,30.8,23.3,10.8,0000.0,0006.69,0001.55,0000.87
2023-02-20 15:26:00,,0815.5,5.02,0.00,21.7,19.8,00.0,30.8,23.2,10.8,0000.0,0009.30,0001.71,0000.88
2023-02-20 15:27:00,,0816.0,4.99,0.00,21.6,19.7,00.0,30.7,23.1,10.8,0000.0,0009.30,0001.72,0000.89
2023-02-20 15:28:00,,0815.7,4.99,0.00,21.6,19.6,00.0,30.7,23.0,10.9,0000.0,0009.45,0001.82,0000.91
2023-02-20 15:29:00,,0815.6,5.01,0.00,21.5,19.6,00.0,30.7,23.1,11.0,0000.0,0009.53,0001.92,0000.91
2023-02-20 15:30:00,,0815.5,4.99,0.00,21.6,21.0,00.0,30.6,23.4,10.9,0000.0,0010.04,0002.02,0000.92
2023-02-20 15:31:00,,0815.7,5.00,0.00,21.8,22.3,00.0,30.6,23.7,10.8,0000.0,0010.63,0002.09,0000.93
2023-02-20 15:32:00,,0815.6,4.98,0.00,21.9,22.8,00.0,30.6,24.0,10.8,0000.0,0010.76,0002.12,0000.93
2023-02-20 15:33:00,,0815.6,4.99,0.00,22.0,22.2,00.0,30.7,23.8,10.7,0000.0,0011.72,0002.23,0000.94
2023-02-20 15:34:00,,0815.6,5.02,0.00,22.0,21.6,00.0,30.8,23.7,10.7,0000.0,0012.39,0002.38,0000.97
2023-02-20 15:35:00,,0815.5,4.99,0.00,21.9,21.2,00.0,30.8,23.6,10.7,0000.0,0012.44,0002.48,0000.98
2023-02-20 15:36:00,,0815.4,4.99,0.00,21.9,20.8,00.0,30.8,23.5,10.7,0000.0,0012.60,0002.56,0001.00
2023-02-20 15:37:00,,0815.2,5.01,0.00,21.9,20.6,00.0,30.8,23.5,10.7,0000.0,0011.56,0002.58,0001.01
2023-02-20 15:38:00,,0815.2,5.00,0.00,21.8,20.3,00.0,30.8,23.4,10.8,0000.0,0011.35,0002.59,0001.01
2023-02-20 15:39:00,,0815.2,5.01,0.00,21.8,20.1,00.0,30.8,23.3,10.9,0000.0,0011.45,0002.55,0001.02
2023-02-20 15:40:00,,0815.2,4.99,0.00,21.7,20.0,00.0,30.8,23.2,11.0,0000.0,0011.99,0002.53,0001.02
2023-02-20 15:41:00,,0815.3,5.00,0.00,21.7,19.9,00.0,30.8,23.2,11.0,0000.0,0012.24,0002.49,0001.01
2023-02-20 15:42:00,,0815.5,5.00,0.00,21.7,19.8,00.0,30.7,23.2,10.9,0000.0,0011.91,0002.47,0001.02
2023-02-20 15:43:00,,0815.4,4.99,0.00,21.6,19.7,00.0,30.7,23.1,10.9,0000.0,0012.26,0002.48,0001.03
2023-02-20 15:44:00,,0815.3,4.97,0.00,21.6,19.7,00.0,30.7,23.1,11.0,0000.0,0012.16,0002.42,0001.03
2023-02-20 15:45:00,,0815.3,5.00,0.00,21.5,19.6,00.0,30.7,23.0,11.0,0000.0,0012.42,0002.36,0001.02
2023-02-20 15:46:00,,0815.5,5.01,0.00,21.5,19.5,00.0,30.7,23.0,11.1,0000.0,0012.72,0002.32,0001.02
2023-02-20 15:47:00,,0815.3,5.01,0.00,21.4,19.4,00.0,30.6,22.9,11.1,0000.0,0011.70,0002.21,0001.00
2023-02-20 15:48:00,,0815.4,4.98,0.00,21.4,19.4,00.0,30.6,22.9,11.2,0000.0,0011.36,0002.16,0000.99
2023-02-20 15:49:00,,0815.2,5.02,0.00,21.4,20.5,00.0,30.5,23.1,11.1,0000.0,0011.14,0002.12,0000.99
2023-02-20 15:50:00,,0815.4,5.01,0.00,21.6,21.9,00.0,30.5,23.5,11.1,0000.0,0011.09,0002.08,0000.98
2023-02-20 15:51:00,,0815.2,4.95,0.00,21.8,22.8,00.0,30.5,23.8,11.1,0000.0,0011.10,0002.12,0000.98
2023-02-20 15:52:00,,0815.2,4.95,0.00,21.8,22.3,00.0,30.6,23.8,11.1,0000.0,0010.47,0002.14,0000.99
2023-02-20 15:53:00,,0815.4,5.00,0.00,21.8,21.7,00.0,30.6,23.6,11.0,0000.0,0010.58,0002.20,0000.99
2023-02-20 15:54:00,,0815.3,5.00,0.00,21.8,21.2,00.0,30.7,23.5,11.0,0000.0,0010.37,0002.22,0000.98
2023-02-20 15:55:00,,0815.6,4.99,0.00,21.8,20.9,00.0,30.7,23.4,11.1,0000.0,0010.56,0002.26,0000.97
2023-02-20 15:56:00,,0815.4,5.01,0.00,21.8,20.6,00.0,30.7,23.4,11.1,0000.0,0010.14,0002.24,0000.98
2023-02-20 15:57:00,,0815.6,5.00,0.00,21.7,20.4,00.0,30.7,23.3,11.0,0000.0,0009.82,0002.20,0000.97
2023-02-20 15:58:00,,0815.5,5.00,0.00,21.7,20.2,00.0,30.7,23.2,11.0,0000.0,0009.82,0002.21,0000.98
2023-02-20 15:59:00,,0816.0,5.00,0.00,21.6,19.9,00.0,30.7,23.1,11.1,0000.0,0008.89,0002.16,0000.97
